Regional Weather Roundup
Issued by NWS

Home | Current Version | Previous Version | Text Only | Print | Product List | Glossary On
Versions: 1 2 3 4 5 6 7 8 9 10 11 12 13 14 15 16 17 18 19 20 21 22 23 24 25 26 27 28 29 30 31 32 33 34 35 36 37 38 39 40 41 42 43 44 45 46 47 48 49
000
ASUS43 KDMX 170807
RWRIA

WEATHER ROUNDUP FOR IOWA
NATIONAL WEATHER SERVICE DES MOINES IA
200 AM CST WED DEC 17 2014

NOTE: "FAIR" INDICATES FEW OR NO CLOUDS BELOW 12,000 FEET WITH NO
SIGNIFICANT WEATHER AND/OR OBSTRUCTIONS TO VISIBILITY.

* - THESE STATIONS ARE NOT NWS STATIONS...THUS NOT UNDER NWS
QUALITY CONTROL.  THEY ALSO DO NOT REPORT WEATHER SUCH
AS PRECIPITATION OR FOG.

IAZ001>003-012>014-020>022-031>034-043>046-170900-
   NORTHWEST IOWA

CITY           SKY/WX    TMP DP  RH WIND       PRES   REMARKS
CARROLL *      PTCLDY    12   9  85 W6        30.34R WCI   3
CHEROKEE *     CLEAR     10   9  92 NW3       30.33S
DENISON *      CLEAR     12  10  92 NW6       30.32S WCI   3
LE MARS *      CLEAR      9   7  92 CALM      30.36R
ORANGE CITY *  CLEAR     10   7  85 NW5       30.32R WCI   2
SHELDON *      CLEAR      7   5  92 NW8       30.31S WCI  -6
SIOUX CITY     PTCLDY    12   8  84 NW6       30.37S WCI   3
SPENCER        CLEAR     10   6  84 W7        30.31S WCI  -1
STORM LAKE *   CLEAR     10   7  85 NW8       30.31S WCI  -1
$$

IAZ055>058-069>071-079>083-090>094-170900-
   SOUTHWEST IOWA

CITY           SKY/WX    TMP DP  RH WIND       PRES   REMARKS
ATLANTIC *     CLEAR     16  12  86 N8        30.34R WCI   5
AUDUBON *      CLEAR     14   7  73 NW6       30.33R WCI   5
CLARINDA *     PTCLDY    19  16  86 N9        30.36S WCI   9
COUNCIL BLFS * CLOUDY    16  14  93 N10       30.33R WCI   3
CRESTON *      CLOUDY    19  16  86 N9        30.31S WCI   9
HARLAN  *      CLEAR     16  14  93 NW8       30.38R WCI   5
LAMONI         CLOUDY    20  15  81 N7        30.31S WCI  11
RED OAK *      CLOUDY    18  14  86 N9        30.35S WCI   6
SHENANDOAH *   MOCLDY    19  16  86 NW6       30.37R WCI  11
$$

IAZ047>049-059>061-072>074-084-170900-
   CENTRAL IOWA

CITY           SKY/WX    TMP DP  RH WIND       PRES   REMARKS
AMES           CLOUDY    18  11  74 NW12      30.32S WCI   5
ANKENY *       CLOUDY    18  12  79 N9        30.33S WCI   6
CHARITON *     CLOUDY    19  16  86 N8        30.32R WCI   9
DES MOINES     FLURRIES  17  10  74 N8        30.34R WCI   7
GRINNELL*      CLOUDY    18  14  86 NW10      30.30S WCI   6
KNOXVILLE *    CLOUDY    16  10  79 N13       30.32R WCI   2
MARSHALLTOWN   CLOUDY    18  14  84 W9        30.29R WCI   7
PELLA *        CLOUDY    16  10  79 NW7       30.35R WCI   6
PERRY *          N/A     16  12  86 NW8       30.33F WCI   5
$$

IAZ004>006-015-016-023>025-035-036-170900-
   NORTH CENTRAL IOWA

CITY           SKY/WX    TMP DP  RH WIND       PRES   REMARKS
ALGONA *       CLEAR     12  10  92 NW8       30.31R WCI   1
CLARION *      MOCLDY    14  10  85 NW14      30.30S WCI  -1
ESTHERVILLE    CLEAR     11   8  88 W8        30.29R WCI  -1
FORT DODGE *   CLEAR     12   7  79 NW5       30.32S WCI   4
MASON CITY     PTCLDY    11   8  88 W12       30.29R WCI  -3
FOREST CITY *  FLURRIES  14   9  79 NW8       30.28R WCI   3
IOWA FALLS *   MOCLDY    16  12  86 W13       30.30R WCI   2
$$

IAZ007>011-017>019-026>030-037>042-050>054-066-170900-
   NORTHEAST IOWA

CITY           SKY/WX    TMP DP  RH WIND       PRES   REMARKS
CEDAR RAPIDS   CLOUDY    19  14  81 NW13      30.27R WCI   6
CHARLES CITY * CLOUDY    18  14  86 W10       30.27R WCI   6
CLINTON *      CLOUDY    21  16  79 NW13      30.27R WCI   9
DECORAH *      CLOUDY    19  16  86 NW8       30.22R WCI   9
DUBUQUE        CLOUDY    21  16  81 NW15      30.21R WCI   8
MONTICELLO *   CLOUDY    23  16  74 NW12      30.24S WCI  12
OELWEIN *      CLOUDY    19  16  86 NW14      30.26R WCI   6
WATERLOO       CLOUDY    18  13  80 NW12      30.28R WCI   5
$$

IAZ064-065-067-068-078-170900-
   EAST CENTRAL IOWA

CITY           SKY/WX    TMP DP  RH WIND       PRES   REMARKS
DAVENPORT      CLOUDY    21  14  74 NW16      30.26R WCI   7
IOWA CITY      CLOUDY    20  13  74 NW9       30.31R WCI   9
MT. PLEASANT * CLOUDY    18  14  86 W10       30.32R WCI   6
MUSCATINE *    CLOUDY    21  14  73 NW13      30.32R WCI   9
QUAD CITIES    CLOUDY    21  14  74 W13       30.27R WCI   9
$$

IAZ062-063-075>077-085>089-095>099-170900-
   SOUTHEAST IOWA

CITY           SKY/WX    TMP DP  RH WIND       PRES   REMARKS
BURLINGTON     CLOUDY    20  15  81 NW10      30.30R WCI   9
FAIRFIELD *    FLURRIES  19  12  73 NW12      30.32R WCI   7
FORT MADISON * CLOUDY    21  18  86 NW12      30.31R WCI   9
KEOKUK *       CLOUDY    25  19  80 NW9       30.30R WCI  15
OSKALOOSA *    CLOUDY    16  12  86 NW10      30.33R WCI   3
CENTERVILLE *  CLOUDY    23  18  80 W10       30.32R WCI  12
OTTUMWA        CLOUDY    16  10  77 NW12      30.33R WCI   3
WASHINGTON *   CLOUDY    19  16  86 NW14      30.31R WCI   6
$$

ABBREVIATIONS USED IN REMARKS
   TC - TEMPERATURES IN CELSIUS
  WCI - WIND CHILL INDEX
   HX - HEAT INDEX
  VSB - VISIBILITY
$$



USA.gov is the U.S. government's official web portal to all federal, state and local government web resources and services.